Location: Berlin
(52.5170°N, 13.4000°E)
Time: 12:04:36
(UTC+02:00)

ISS - Pass Details

Date: 14 July 2018
Orbit: 402 x 408 km, 51.6° (Epoch: 17 July)

Event Time Altitude Azimuth Distance (km) Brightness Sun altitude
Exits shadow 01:07:45 15° 113° (ESE) 1,195 -1.7 -15.8°
Drops below altitude 10° 01:08:48 10° 98° (E) 1,470 -1.1 -15.8°
Sets 01:11:15 0° 80° (E) 2,335 0.2 -15.8°
